Weather History for Alliance, NE

Change the Weather History Date:

Tuesday, February 5, 2013

  Actual Average Record
Temperature  
Mean Temperature 35 °F 25 °F  
Max Temperature 51 °F 39 °F 66 °F (1904)
Min Temperature 18 °F 11 °F -32 °F (1899)
Degree Days  
Heating Degree Days 30 40  
Month to date heating degree days 156 200  
Since 1 July heating degree days 4225 4545  
Cooling Degree Days 0 0  
Month to date cooling degree days 0 0  
Year to date cooling degree days 0 0  
Moisture  
Dew Point 21 °F    
Average Humidity 57    
Maximum Humidity 84    
Minimum Humidity 29    
Precipitation  
Precipitation 0.00 in 0.01 in 0.85 in (1986)
Month to date precipitation 0.00 0.06  
Year to date precipitation 0.22 0.24  
Sea Level Pressure  
Sea Level Pressure 29.96 in    
Wind  
Wind Speed 9 mph (SW)    
Max Wind Speed 13 mph    
Max Gust Speed 16 mph    
Visibility 10 miles    
Events      
T = Trace of Precipitation, MM = Missing Value Source: NWS Daily Summary

Daily Weather History Graph

Daily Weather History Graph

Search for Another Location

Airport:

Trip Planner

Search our weather history database for the weather conditions in past years. The results will help you decide how hot, cold, wet, or windy it might be!

Date:

Astronomy

Feb. 05, 2013 Rise Set
Actual Time 6:59 AM MST 5:11 PM MST
Civil Twilight 6:30 AM MST 5:40 PM MST
Nautical Twilight 5:56 AM MST 6:14 PM MST
Astronomical Twilight 5:24 AM MST 6:46 PM MST
Moon 2:45 AM MST (2/5) 12:29 PM MST (2/5)
Length of Visible Light 11h 10m
Length of Day
10h 12m
Waning Crescent, 26% of the Moon is Illuminated
Feb 5
Waning Crescent
Feb 10
New
Feb 17
First Quarter
Feb 25
Full
Mar 4
Last Quarter

Hourly Weather History & Observations

Time (MST) Temp. Windchill Dew Point Humidity Pressure Visibility Wind Dir Wind Speed Gust Speed Precip Events Conditions
12:53 AM 19.0 °F 9.0 °F 14.0 °F 81% 29.90 in 10.0 mi West 8.1 mph - N/A   Clear
1:53 AM 21.0 °F 16.2 °F 15.1 °F 78% 29.93 in 10.0 mi NW 3.5 mph - N/A   Clear
2:53 AM 18.0 °F 7.7 °F 14.0 °F 84% 29.94 in 10.0 mi West 8.1 mph - N/A   Clear
3:53 AM 23.0 °F 11.1 °F 18.0 °F 81% 29.96 in 10.0 mi West 12.7 mph - N/A   Clear
4:53 AM 21.9 °F 10.4 °F 17.1 °F 82% 30.00 in 10.0 mi West 11.5 mph - N/A   Clear
5:53 AM 21.0 °F 10.6 °F 17.1 °F 85% 30.04 in 10.0 mi West 9.2 mph - N/A   Clear
6:53 AM 21.9 °F 10.4 °F 17.1 °F 82% 30.07 in 10.0 mi West 11.5 mph - N/A   Clear
7:53 AM 25.0 °F 14.2 °F 19.0 °F 78% 30.10 in 10.0 mi West 11.5 mph - N/A   Clear
8:53 AM 34.0 °F 27.2 °F 23.0 °F 64% 30.09 in 10.0 mi WNW 8.1 mph - N/A   Clear
9:53 AM 42.1 °F 37.1 °F 25.0 °F 51% 30.09 in 10.0 mi West 8.1 mph - N/A   Clear
10:53 AM 46.9 °F - 21.9 °F 37% 30.07 in 10.0 mi West 9.2 mph - N/A   Clear
11:53 AM 48.0 °F - 21.9 °F 36% 30.02 in 10.0 mi NW 6.9 mph - N/A   Clear
12:53 PM 50.0 °F - 21.0 °F 32% 30.00 in 10.0 mi Variable 5.8 mph - N/A   Clear
1:53 PM 50.0 °F - 19.9 °F 31% 29.94 in 10.0 mi SW 6.9 mph - N/A   Clear
2:53 PM 50.0 °F - 19.9 °F 31% 29.95 in 10.0 mi South 4.6 mph - N/A   Clear
3:53 PM 48.0 °F - 21.0 °F 34% 29.93 in 10.0 mi SE 6.9 mph - N/A   Scattered Clouds
4:53 PM 43.0 °F 38.2 °F 23.0 °F 45% 29.94 in 10.0 mi ESE 8.1 mph - N/A   Mostly Cloudy
5:53 PM 33.1 °F 24.9 °F 21.9 °F 64% 29.96 in 10.0 mi SE 10.4 mph - N/A   Partly Cloudy
6:53 PM 30.0 °F 21.7 °F 21.9 °F 72% 29.96 in 10.0 mi SSE 9.2 mph - N/A   Clear
7:53 PM 34.0 °F 25.5 °F 25.0 °F 70% 29.93 in 10.0 mi South 11.5 mph - N/A   Clear
8:53 PM 37.4 °F 30.3 °F 24.8 °F 60% 29.84 in 10.0 mi South 10.4 mph - N/A   Clear
9:53 PM 36.0 °F 28.5 °F 25.0 °F 64% 29.85 in 10.0 mi SSE 10.4 mph - N/A   Clear
10:53 PM 37.0 °F 29.3 °F 25.0 °F 62% 29.82 in 10.0 mi South 11.5 mph - N/A   Clear
11:53 PM 34.0 °F 28.0 °F 25.0 °F 70% 29.82 in 10.0 mi SSE 6.9 mph - N/A   Clear